CAPE
0 0 0 0 0 0 0 0 0 0 0 0 0 0 0 0 0 0 11 22 0 0 0 0 1 112 107 0 10 40 0 0 10 100 17 17 38 320 280 946 1256 1111 941 985 899 866 852 560 712 826 946 959 1217 1381 1176 1240 1100 1192 1626 1782 1948 1870 1936 2041 2251 2315 2260 2334 2531 2504 2457 2523 2484 2385 2276 2284 2316 2372 2415 2302 2205 2228 2236 2291 2473 2491 2552
0 0 0 0 0 0 0 0 0 0 0 0 0 0 0 0 0 0 0 25 0 0 0 0 0 0 0 0 56 0 0 0 50 38 124 0 0 0 102 510 668 1267 1160 1180 1249 1012 863 592 804 677 968 1061 1047 1054 1190 1349 1287 1269 1512 1972 2187 1863 1950 2300 2602 2490 2577 2576 2756 2807 2637 2752 2792 2689 2472 2462 2386 2514 2636 2438 2400 2371 2384 2395 2420 2508 2508
0 0 0 0 0 0 0 0 0 0 0 0 0 0 0 0 0 0 0 0 0 0 0 0 0 50 0 0 0 0 0 0 0 2 0 287 224 90 194 564 417 880 1140 1210 1344 1210 1219 898 879 802 912 902 1043 887 994 1060 1379 1362 1545 2120 1938 1914 2058 2322 2451 2565 2708 2711 2808 2792 2810 2838 2805 2832 2606 2620 2641 2770 2748 2652 2488 2548 2533 2497 2405 2448 2498
0 0 0 0 0 0 0 0 0 0 0 0 0 0 0 0 0 0 0 0 0 0 0 0 0 0 0 0 0 0 0 0 2 0 52 192 444 582 258 391 237 480 636 1021 1226 1108 778 753 786 781 803 914 912 806 924 1044 1181 1309 1429 1622 1678 2166 2421 2678 2758 2744 2577 2823 2823 2836 2830 2833 2931 2886 2740 2690 2707 2793 2820 2765 2711 2693 2630 2594 2622 2466 2484
0 0 0 0 0 0 0 0 0 0 0 0 0 0 0 0 0 0 0 0 0 0 0 0 0 0 0 0 0 0 0 0 0 4 22 138 319 454 571 284 367 100 98 423 1175 948 647 685 626 544 683 653 938 1009 1112 1208 1230 1252 1412 1619 2063 2360 2436 2505 2776 2879 2875 2989 2902 2928 2908 2820 2907 2911 2897 2885 2927 2965 2911 2917 2908 2894 2765 2639 2649 2599 2521
0 0 0 0 0 0 0 0 0 0 0 0 0 0 0 0 0 0 0 0 0 0 0 0 0 0 0 0 0 0 0 4 223 0 47 90 144 204 170 88 61 84 160 166 232 675 1039 810 602 494 499 565 941 907 1063 1316 1322 1547 1806 1783 2166 2188 2602 2878 2952 2983 3058 2934 2935 3010 2989 2940 2958 2961 2926 2920 2859 2835 2838 2910 2956 2929 2756 2730 2700 2742 2597
0 0 0 0 0 0 0 0 0 0 0 0 0 0 0 0 0 0 0 0 0 0 0 0 0 0 0 268 610 18 102 112 40 410 481 1344 1346 1469 1657 1490 1082 804 525 434 451 546 525 514 518 542 576 595 755 816 1073 1278 1558 1849 2009 2104 2236 2470 2726 2694 2874 3080 3138 3090 3106 3128 3158 3085 3019 2937 2916 2916 2907 2849 2842 2926 2950 2872 2857 2665 2541 2575 2443
0 0 0 0 0 0 0 0 0 0 0 0 0 0 0 0 0 0 0 0 0 0 0 0 0 24 724 624 1771 1878 1712 1748 2077 1869 1876 1976 2015 1996 2242 2093 1966 1741 1085 632 380 430 460 526 543 576 604 498 485 563 740 1092 1320 1564 2057 2291 2167 2392 2791 2822 2942 3083 3091 3190 3159 3184 3148 3127 3066 2999 2992 3034 3021 2989 2932 2978 2931 2892 2987 2738 2548 2601 2418
0 0 0 0 0 0 0 0 0 0 0 0 0 0 0 0 0 0 14 49 0 0 0 0 0 40 95 205 631 1422 1536 1675 1591 1662 1901 1790 1984 1918 2002 2000 2009 2071 1957 1358 718 506 566 405 417 506 480 505 516 584 740 952 1607 1558 1799 2212 2314 2713 2598 2700 2916 3067 3137 3206 3248 3176 3170 3148 3113 3084 3115 3161 3147 3085 3018 3023 3018 2926 2738 2583 2632 2773 2713
0 0 0 0 0 0 1 0 0 0 0 0 0 0 0 0 0 0 0 7 115 420 432 0 0 0 0 0 0 1032 1387 1392 1396 1386 1334 1378 1506 1707 1761 1948 1999 2272 2442 2390 1720 568 396 580 452 599 636 694 784 1020 1116 1290 1558 1430 1776 2375 2780 2904 2873 3184 3263 3239 3258 3074 3295 3238 3254 3215 3213 3168 3232 3247 3240 3062 2980 2927 2929 2842 2827 2728 2590 2545 2444
0 0 0 0 0 0 46 3 0 0 0 0 0 0 0 0 0 0 0 0 42 286 728 800 0 0 0 0 0 1720 1622 1428 1244 1392 1486 1467 1542 1714 1818 1940 2164 2279 2523 2597 2414 1005 645 626 789 976 858 869 1040 1598 1759 1169 1412 1822 2389 2772 2894 2876 2964 3108 3269 3237 3134 3013 2833 3331 3354 3312 3233 3282 3416 3447 3267 3239 3095 3095 3023 3004 2806 2634 2576 2604 2782
0 0 0 0 0 0 0 0 0 0 2 0 0 0 5 0 0 0 0 0 6 233 600 679 124 0 0 0 0 1611 1554 1231 1112 1156 1466 1716 1731 1890 1966 2120 2110 2366 2684 2396 1581 940 725 1196 1344 1352 995 1310 1464 1974 1691 1379 1588 2216 2483 2328 2968 2875 2801 3118 3052 3370 3396 3226 3076 3099 3163 3306 3344 3436 3436 3270 3323 3162 2968 2960 3038 3088 2907 2702 2672 2907 2762
0 0 0 0 0 0 0 0 17 16 0 0 0 0 18 0 0 0 0 0 0 214 426 536 91 0 518 1255 1058 1182 1244 1015 954 1164 1298 1804 2000 2218 2177 1977 1990 2515 2518 2710 2527 2351 2702 2399 1542 1183 1132 1675 2172 2213 2338 2148 2028 1914 2315 2785 3121 3109 3131 2884 3158 3398 3341 3341 3130 3190 3295 3407 3460 3486 3564 3372 3204 3102 2948 2882 2940 2976 2944 2826 2760 2823 2673
0 0 0 0 0 8 0 32 19 20 0 0 0 0 0 0 0 0 0 0 0 38 321 446 301 738 856 940 938 844 933 1055 768 1455 1718 2016 2339 2618 2470 2094 1918 2430 2305 2400 2382 2277 2206 2125 1721 1697 2080 2413 2843 2865 2680 2512 2568 2314 2906 3206 3159 3132 3284 3252 3211 3405 3500 3479 3450 3372 3497 3614 3620 3517 3345 3210 3195 3264 3050 3100 3018 3126 3062 2924 2894 2698 2986
0 0 0 0 0 0 0 55 15 60 0 15 31 0 0 0 0 0 0 0 0 7 80 378 231 565 573 581 780 868 889 933 1128 1288 1549 1794 2248 2789 2874 2690 2394 2101 2164 1915 1803 1808 1873 2010 2265 2302 1954 2596 2757 2971 2942 3026 2806 2854 3106 3192 3376 3478 3520 3335 3503 3546 3604 3674 3334 3298 3432 3464 3354 3367 3476 3415 3366 3336 3265 3222 3182 3098 3182 3162 2909 2920 2923
0 0 0 0 20 256 190 15 20 54 21 3 0 0 0 0 0 0 0 2 91 194 46 298 413 456 500 688 1065 1106 982 1013 1035 1128 1150 1163 1390 1827 2298 2762 3012 2908 2668 2384 2309 2298 2092 1732 2021 2594 3287 2776 2928 2927 3548 3092 3019 2837 3188 3548 3630 3546 3485 3488 3518 3549 3721 3295 3215 3259 3444 3551 3576 3638 3695 3546 3456 3426 3509 3380 3208 3196 3228 3357 3254 2922 2919
33 29 103 106 31 13 98 126 173 68 19 2 0 0 0 0 0 0 0 73 134 116 273 349 351 144 672 1064 1147 1182 1084 982 1002 945 979 995 964 1197 1545 1958 2426 2842 3177 3236 3042 2861 2653 2542 2308 1991 2468 3504 3320 3133 2730 3165 3964 3034 3174 3494 3410 3378 3137 3251 3470 3601 3512 3412 3488 3511 3577 3620 3632 3710 3742 3681 3589 3614 3581 3401 3351 3296 3013 2896 3057 3148 3180
69 32 0 0 0 2 78 156 230 81 13 0 23 120 210 245 351 232 176 560 421 257 324 349 455 652 916 1176 1118 976 990 914 838 852 778 805 726 720 1010 1284 1557 1710 2068 2467 2830 3168 3366 3360 3170 2958 2644 2218 2114 2109 2248 2608 3540 3886 3470 3334 3479 3518 3532 3542 3431 3328 3569 3624 3703 3604 3670 3526 3612 3761 3608 3610 3566 3666 3620 3559 3490 3343 3487 3357 3222 3178 3366
1 0 216 37 32 116 157 205 126 106 19 4 50 209 244 335 310 461 562 804 804 792 866 931 1006 1014 1017 972 892 716 624 615 330 402 495 536 545 636 729 920 1133 1200 1205 1387 1474 1641 2024 2283 2819 3221 3401 3379 3074 2916 2998 2900 3060 3669 3886 3374 3496 3504 3464 3285 3372 3352 3336 3213 3284 3324 3536 3528 3591 3699 3650 3747 3682 3767 3752 3614 3481 3345 3142 3303 3249 3092 2896
4 0 6 0 0 44 100 53 100 82 21 0 10 173 204 260 316 381 480 758 956 1018 1062 1030 1012 829 704 421 6 41 94 212 390 416 483 538 670 695 882 915 1004 1153 1323 1384 1405 1462 1595 1949 1964 2054 2161 2321 2723 3135 3392 3522 3475 3559 4014 4146 3537 3452 3444 3532 3399 3310 3328 3051 3069 3312 3648 3744 3685 3736 3766 3676 3673 3672 3568 3579 3496 3326 3258 3050 2896 2833 2884
4 1 0 0 0 0 42 77 31 116 53 39 48 82 188 275 334 365 478 599 748 782 806 650 612 533 454 534 459 510 66 134 267 400 406 522 648 751 881 1030 1053 1129 1102 1061 1054 1170 1334 1518 1528 1512 1504 1557 1767 2019 2153 2376 2893 3423 3608 3568 3688 3930 4010 3780 3514 3086 3068 3007 3214 3258 3567 3695 3643 3837 3861 3661 3603 3637 3614 3737 3663 3566 3393 3070 2985 2917 2836
8 3 0 145 72 112 109 54 115 142 108 159 99 43 116 216 74 375 420 450 453 357 494 517 646 684 632 623 660 640 644 612 667 672 661 747 839 862 844 923 964 1068 1148 1122 1098 1091 1138 1278 1321 1250 1335 1326 1225 1281 1429 1708 2214 2459 2707 3083 3294 3399 3470 3516 3509 3504 3467 3373 3334 3281 3128 3169 3023 3158 2981 2914 3406 3568 3543 3286 3130 3052 3068 3312 3566 3560 3702
2 0 2 95 10 18 2 0 0 21 188 248 298 64 42 44 11 178 219 192 314 325 449 443 563 635 703 699 689 665 663 672 711 742 799 879 963 860 808 825 838 861 900 954 988 1025 1156 1128 1151 1238 1197 1120 1016 969 995 1180 1490 1738 2100 2381 2592 2717 2934 3070 3239 3329 3412 3449 3481 3450 3413 3406 3332 3237 3144 3014 2928 2854 2734 2793 2825 2792 2698 2671 2709 2824 2860
6 0 0 5 10 8 8 12 17 39 102 256 147 27 5 47 21 73 112 265 267 352 305 362 507 581 581 590 551 590 624 634 654 580 571 584 624 720 736 714 710 740 748 876 942 972 1013 1120 1181 1240 1262 1112 958 970 936 896 892 1082 1301 1421 1447 1862 2062 2344 2383 2542 2616 2728 2819 2954 3085 3146 3185 3168 3202 3216 3154 2820 2635 2632 2650 2579 2504 2513 2574 2570 2540
14 4 9 16 10 4 2 66 47 30 32 92 124 1 12 49 26 24 11 70 272 261 122 281 341 340 428 428 495 509 481 490 504 542 484 515 614 713 755 752 725 700 624 665 789 882 969 1040 1089 1104 1020 1307 1344 1257 1303 1255 919 814 772 942 895 935 975 1127 1238 1081 1366 1689 1773 1814 1763 1796 1878 1987 2120 2145 1928 1685 1334 1405 1738 1903 1972 1917 2177 2436 2488
4 2 2 18 16 10 94 28 20 46 49 55 21 1 15 56 40 15 9 112 120 7 14 12 42 82 144 232 271 286 388 451 513 544 466 501 611 669 729 767 796 799 818 829 893 991 1050 1158 1208 1153 1016 1005 1222 1291 1280 1071 857 801 826 864 868 810 726 749 716 698 841 940 980 922 870 877 902 965 1045 936 832 943 950 975 1048 220 0 90 292 1168 1947
6 3 4 20 14 31 96 25 94 71 66 17 0 5 17 44 11 12 41 12 0 0 2 2 2 25 80 88 145 217 353 442 485 578 603 576 590 631 718 775 816 832 832 862 925 1000 1059 1080 1116 1142 1127 1098 1188 1092 1007 932 1042 1183 1230 1013 746 615 650 656 591 540 514 531 480 569 690 690 703 670 512 493 386 341 391 470 460 455 421 468 112 0 414
3 14 50 25 30 56 68 30 22 51 4 0 0 0 1 40 30 20 8 0 0 0 0 0 0 0 0 8 37 111 186 284 333 408 455 483 551 586 632 751 847 882 874 848 817 789 808 912 1026 1056 982 1107 1180 1188 1136 1244 1298 1270 1117 996 813 633 556 498 472 464 438 418 389 676 758 611 350 296 225 195 237 124 74 60 87 111 144 294 390 44 0
11 50 102 112 36 109 54 43 62 16 76 117 76 0 17 33 16 15 20 0 6 0 0 0 0 0 0 0 0 0 0 0 0 0 68 284 411 492 554 631 729 794 844 858 870 840 806 815 905 914 852 892 1088 1135 1216 1243 1220 1171 1169 1154 1167 1092 1066 947 900 710 681 824 850 764 475 130 218 280 244 211 114 42 0 1 5 8 0 0 12 0 3
102 141 145 131 123 218 202 74 29 5 0 121 113 27 3 20 11 23 15 4 0 0 0 0 0 0 0 0 0 0 0 1 0 0 1 1 176 313 384 434 480 559 667 775 848 856 831 793 763 727 730 734 892 1061 904 963 1004 1106 1166 1214 1254 1286 1252 1198 1157 1112 1084 1056 999 803 556 232 170 180 222 199 94 20 10 12 0 0 0 1 1 11 4
65 79 36 151 143 114 19 66 31 6 0 63 152 128 20 2 0 1 0 1 0 0 0 0 0 0 0 0 0 0 0 0 1 0 0 0 78 114 4 43 77 276 435 580 691 743 772 747 704 670 654 652 654 758 883 799 744 647 754 934 1123 1244 1332 1347 1263 1201 1140 967 820 665 428 236 187 120 51 62 12 2 37 1 0 0 0 1 0 0 1
26 53 105 98 88 97 57 25 110 4 4 42 53 106 20 4 0 3 1 1 0 0 0 0 0 1 0 0 0 0 0 0 0 0 0 0 0 0 4 179 251 249 227 410 466 470 546 610 622 633 642 646 653 653 680 684 717 622 582 494 497 550 704 748 701 712 686 584 514 426 227 175 118 114 178 72 2 0 1 0 1 0 0 1 0 4 14
148 26 27 39 111 59 74 17 2 28 8 1 1 4 16 14 12 12 9 9 5 40 62 61 17 0 0 2 2 2 2 0 0 0 0 0 0 0 2 10 19 46 96 188 412 524 531 416 496 577 597 579 610 637 629 577 633 640 592 571 527 384 314 376 348 426 466 502 475 239 131 48 14 82 33 2 1 1 2 0 0 0 0 0 0 0 0
183 314 96 46 84 176 281 74 32 66 48 82 116 125 196 113 50 25 15 11 18 37 64 70 66 37 26 16 9 5 2 0 0 0 0 0 0 0 0 0 5 24 34 89 164 255 400 383 359 393 513 503 407 480 514 538 564 670 700 698 580 529 486 409 357 347 391 308 242 196 140 81 54 48 43 0 1 0 1 0 0 0 0 0 0 0 30
383 418 372 326 98 230 238 154 65 165 279 328 320 359 308 174 46 12 28 72 65 46 67 76 74 80 53 25 0 0 0 0 0 0 0 0 0 0 0 0 8 34 60 54 129 199 226 392 358 314 266 312 283 266 237 278 468 612 624 733 613 580 565 480 483 424 416 348 367 389 301 173 44 9 0 0 0 0 0 0 0 0 0 0 0 0 10
556 445 138 253 347 311 350 168 246 504 528 440 405 424 341 244 224 229 154 121 140 110 104 70 73 64 41 2 0 0 0 0 0 0 0 0 0 0 0 0 2 18 52 31 40 87 100 158 244 174 178 206 214 366 356 308 273 345 481 592 504 511 452 459 500 479 431 477 515 468 263 146 64 42 108 77 18 0 0 0 0 0 0 0 0 1 0
114 151 158 404 514 463 142 694 765 690 647 560 478 402 396 417 347 224 228 271 209 122 86 52 43 31 11 10 8 6 4 2 0 0 0 0 0 0 0 0 0 0 0 0 1 4 12 42 118 83 64 99 141 230 199 194 238 207 237 338 367 327 515 533 436 489 413 458 338 365 252 314 364 204 118 107 27 0 0 0 0 0 0 1 0 4 0
95 105 164 606 697 455 423 395 621 611 596 606 545 538 426 168 31 74 141 84 106 90 41 11 24 15 4 2 14 15 12 9 7 2 0 0 0 0 0 0 0 0 0 0 1 0 0 0 0 1 55 82 83 58 57 123 91 68 116 159 170 176 163 248 390 388 298 432 350 288 416 450 504 389 172 166 35 6 0 0 0 0 0 0 5 0 7
92 200 161 165 195 205 145 122 65 62 223 63 192 62 56 58 100 139 174 111 70 21 15 18 23 7 2 2 15 16 12 8 4 2 1 2 1 0 2 4 4 2 3 5 2 1 0 0 0 0 0 0 0 0 3 2 0 1 2 4 6 5 2 21 54 85 332 338 262 214 378 290 330 372 277 214 164 164 66 26 2 0 19 28 27 26 28
73 73 74 143 149 78 57 62 114 118 155 153 165 150 76 91 108 86 154 69 21 28 20 3 8 6 0 3 9 12 6 2 0 3 0 0 0 0 0 0 5 8 12 11 3 1 0 0 0 0 0 0 0 0 0 0 0 0 1 2 2 2 7 6 1 4 16 67 120 120 104 48 111 182 110 122 93 71 95 85 44 2 34 41 43 40 53
11 7 1 2 16 57 116 165 164 113 80 144 88 106 194 152 86 11 38 35 16 11 1 6 6 10 9 9 8 3 0 0 0 0 0 0 0 0 0 0 7 10 10 8 3 0 0 0 0 0 0 0 0 0 0 0 0 0 0 0 0 1 1 0 0 2 4 4 4 1 1 1 3 73 178 123 117 131 138 116 21 50 5 69 59 46 48
7 8 9 7 5 10 6 6 20 14 11 6 8 29 28 34 29 22 21 32 44 47 68 80 62 27 4 5 6 3 1 0 0 0 0 0 0 0 0 0 5 9 17 5 0 0 0 0 0 0 0 0 0 0 0 0 0 0 0 0 0 0 0 0 0 1 3 4 5 7 7 9 19 36 74 87 81 103 152 162 142 174 113 35 68 82 106
13 16 15 28 51 36 21 17 18 16 18 19 27 42 45 45 47 54 68 52 27 44 35 24 13 4 4 4 2 3 1 0 0 0 0 1 0 0 0 1 1 4 2 0 0 0 0 0 0 0 0 0 0 0 0 0 0 0 0 0 0 0 0 0 0 0 0 1 2 2 4 3 4 8 4 16 29 21 32 74 70 75 130 190 199 142 117
52 53 50 39 28 19 16 18 12 2 4 22 42 34 18 8 5 15 36 56 54 52 43 27 6 2 4 2 2 2 1 2 3 2 2 2 2 0 0 0 0 0 0 0 0 0 0 0 0 0 0 0 0 0 0 0 0 0 0 0 0 0 0 0 0 0 0 0 0 0 2 2 1 2 2 4 5 1 0 28 53 55 69 104 192 171 84
2 12 25 32 41 46 25 0 0 0 0 8 6 0 0 0 0 0 22 4 0 0 0 0 0 0 0 0 0 0 0 0 0 1 0 0 0 0 0 0 0 0 0 0 0 0 0 0 0 0 0 0 0 0 0 0 0 0 0 0 0 0 0 0 0 0 0 0 0 0 0 0 2 4 4 6 0 2 2 1 0 18 40 68 114 170 128
0 0 0 0 0 2 1 1 2 0 0 0 0 0 1 3 5 3 0 3 4 0 0 0 0 0 0 0 0 0 0 0 0 0 0 0 0 0 0 0 0 0 0 0 0 0 0 0 0 0 0 0 0 0 0 0 0 0 0 0 0 0 0 0 0 0 0 0 0 0 0 0 0 4 18 16 12 4 4 1 2 3 2 42 56 35 94
0 0 0 0 0 0 0 0 0 0 0 0 0 0 0 0 0 0 0 0 0 0 0 0 0 0 0 0 0 0 0 0 0 0 0 0 0 0 0 0 0 0 0 0 0 0 0 0 0 0 0 0 0 0 0 0 0 0 0 0 0 0 0 0 0 0 0 0 0 0 0 0 0 0 0 9 22 6 11 9 7 5 6 22 45 110 94
0 0 0 0 0 0 0 0 0 0 0 0 0 0 0 0 1 2 1 4 2 0 0 0 0 0 0 0 0 0 0 0 0 0 0 0 0 0 0 0 0 0 0 0 0 0 0 0 0 0 0 0 0 0 0 0 0 0 0 0 0 0 0 0 0 0 0 0 0 0 0 0 0 0 0 0 0 0 11 10 15 33 32 30 7 5 10
0 0 0 0 0 0 0 0 0 0 0 0 0 0 0 0 0 2 2 3 2 2 0 0 0 0 0 0 0 0 0 0 0 0 0 0 0 0 0 0 0 0 0 0 0 0 0 0 0 0 0 0 0 0 0 0 0 0 0 0 0 0 0 0 0 0 0 0 0 0 0 0 0 0 0 0 0 0 0 2 6 17 73 80 106 98 79
1 2 2 0 0 0 0 0 0 0 0 0 0 0 0 2 1 0 0 0 0 0 0 0 0 0 0 0 0 0 0 0 0 0 0 0 0 0 0 0 0 0 0 0 0 0 0 0 0 0 0 0 0 0 0 0 0 0 0 0 0 0 0 0 0 0 0 0 0 0 0 0 0 0 0 0 0 0 0 0 1 1 5 4 56 83 137
0 0 0 0 0 0 0 0 0 0 0 0 0 0 0 0 0 1 2 1 1 2 0 0 0 0 0 0 0 0 0 0 0 0 0 0 0 0 0 0 0 0 0 0 0 0 0 0 0 0 0 0 0 0 0 0 0 0 0 0 0 0 0 0 0 0 0 0 0 0 0 0 0 0 0 0 0 0 0 0 0 0 1 2 2 14 24
0 0 0 0 0 0 0 0 0 0 0 0 0 0 0 0 0 2 2 0 0 0 0 0 0 0 0 0 0 0 0 0 0 0 0 0 0 0 0 0 0 0 0 0 0 0 0 0 0 0 0 0 0 0 0 0 0 0 0 0 0 0 0 0 0 0 0 0 0 0 0 0 0 0 0 0 0 0 0 0 0 0 0 2 4 5 3
Wind_Speed
nan nan nan nan nan nan nan nan nan nan nan nan nan nan nan nan nan nan nan nan nan nan nan nan nan 14 16 nan nan nan nan nan nan nan nan nan nan 24 25 26 27 27 25 23 21 20 21 24 22 17 18 19 20 20 13 12 13 14 18 20 19 17 14 13 14 14 13 12 12 14 16 16 17 19 21 22 23 23 23 23 20 20 17 16 16 17 17
nan nan nan nan nan nan nan nan nan nan nan nan nan nan nan nan nan nan nan nan nan nan nan nan nan nan nan nan nan nan nan nan nan nan 21 nan nan nan 19 21 22 23 22 22 21 19 19 22 24 19 18 17 17 15 12 13 12 12 17 19 19 14 12 12 13 15 15 13 13 15 16 16 18 20 21 22 23 24 24 24 22 20 18 16 15 14 15
nan nan nan nan nan nan nan nan nan nan nan nan nan nan nan nan nan nan nan nan nan nan nan nan nan nan nan nan nan nan nan nan nan nan nan 22 20 nan 16 19 21 23 23 21 21 20 19 20 24 21 16 15 14 10 10 11 11 12 15 16 16 13 9 9 12 14 14 12 12 14 16 16 17 19 21 21 21 22 23 23 23 21 20 18 17 15 15
nan nan nan nan nan nan nan nan nan nan nan nan nan nan nan nan nan nan nan nan nan nan nan nan nan nan nan nan nan nan nan nan nan nan nan 21 20 19 19 22 23 23 21 20 19 17 16 17 21 19 15 16 14 9 10 11 12 14 14 14 14 12 8 12 15 14 13 14 13 14 15 16 17 18 19 20 20 20 21 23 22 21 20 17 15 15 14
nan nan nan nan nan nan nan nan nan nan nan nan nan nan nan nan nan nan nan nan nan nan nan nan nan nan nan nan nan nan nan nan nan nan nan 22 21 21 24 23 22 nan nan 19 17 15 14 16 16 15 15 14 12 9 11 12 15 17 16 16 14 11 11 14 13 14 15 15 14 13 14 15 15 16 18 19 20 20 21 21 20 20 20 18 16 15 14
nan nan nan nan nan nan nan nan nan nan nan nan nan nan nan nan nan nan nan nan nan nan nan nan nan nan nan nan nan nan nan nan 28 nan nan nan 24 26 26 nan nan nan 23 21 19 15 15 13 10 11 13 11 8 9 12 18 17 16 16 15 15 13 14 14 14 14 16 16 14 13 14 15 15 17 18 18 20 20 20 20 19 19 20 20 18 17 16
nan nan nan nan nan nan nan nan nan nan nan nan nan nan nan nan nan nan nan nan nan nan nan nan nan nan nan 32 37 nan 31 30 nan 27 28 28 27 27 27 25 23 22 21 20 19 18 16 14 14 13 11 9 11 15 19 19 18 18 18 18 18 18 18 16 16 16 16 16 16 16 17 17 17 17 18 17 19 21 22 22 20 19 19 19 19 19 18
nan nan nan nan nan nan nan nan nan nan nan nan nan nan nan nan nan nan nan nan nan nan nan nan nan nan 39 39 39 37 34 32 30 29 29 30 29 27 27 27 25 23 22 21 19 20 21 19 15 13 11 13 15 16 19 20 20 21 22 21 19 21 22 20 18 17 17 18 19 20 20 19 18 18 20 20 18 19 21 21 20 19 19 18 18 18 18
nan nan nan nan nan nan nan nan nan nan nan nan nan nan nan nan nan nan nan nan nan nan nan nan nan nan nan 37 35 35 33 31 30 30 31 32 30 30 28 27 26 26 24 22 21 22 20 18 17 15 15 17 17 20 22 22 23 23 23 23 20 21 22 21 20 21 23 24 23 22 21 21 20 20 21 21 19 19 19 21 22 22 20 20 17 16 17
nan nan nan nan nan nan nan nan nan nan nan nan nan nan nan nan nan nan nan nan 46 42 41 nan nan nan nan nan nan 35 34 33 32 32 32 32 32 31 31 31 29 28 27 26 23 22 20 18 18 21 21 22 24 25 25 24 25 23 23 22 20 20 21 24 25 27 26 24 24 23 24 23 23 22 23 24 24 24 21 22 22 21 21 19 18 17 17
nan nan nan nan nan nan nan nan nan nan nan nan nan nan nan nan nan nan nan nan nan 44 43 42 nan nan nan nan nan 41 41 38 36 35 35 34 34 34 35 34 33 33 32 30 29 26 22 20 22 24 24 24 25 25 24 22 24 25 24 23 21 18 19 25 28 27 26 24 23 26 25 24 24 24 24 26 27 29 26 25 26 27 26 22 19 18 18
nan nan nan nan nan nan nan nan nan nan nan nan nan nan nan nan nan nan nan nan nan 46 43 41 38 nan nan nan nan 46 45 43 42 38 38 37 36 36 37 37 36 35 35 34 34 31 26 25 27 26 26 27 25 25 23 22 22 22 23 23 23 22 23 26 29 30 30 30 30 28 25 27 27 25 27 30 32 33 31 29 29 29 30 27 25 23 20
nan nan nan nan nan nan nan nan nan nan nan nan nan nan nan nan nan nan nan nan nan 47 44 41 nan nan 45 46 46 46 46 45 44 41 40 39 37 37 39 40 38 39 42 42 42 41 38 36 32 28 28 30 30 29 29 27 21 18 23 31 30 28 29 29 30 30 32 33 30 26 26 28 28 28 30 30 31 33 32 33 32 29 28 28 25 23 21
nan nan nan nan nan nan nan nan nan nan nan nan nan nan nan nan nan nan nan nan nan nan 45 40 37 43 45 45 46 46 46 46 45 43 42 41 39 39 41 42 42 42 44 45 45 45 43 41 38 32 32 33 34 36 34 30 29 31 34 32 31 31 32 31 30 31 31 30 28 27 29 31 30 29 29 30 31 33 34 33 33 31 30 30 27 23 24
nan nan nan nan nan nan nan nan nan nan nan nan nan nan nan nan nan nan nan nan nan nan nan 43 40 43 44 45 46 47 47 47 47 46 45 43 41 41 42 44 44 43 45 47 48 48 46 45 42 40 36 36 38 40 38 38 36 36 36 34 33 33 33 32 32 33 32 31 30 29 30 31 30 29 32 33 34 35 36 35 33 31 31 32 31 30 29
nan nan nan nan nan 88 78 nan nan nan nan nan nan nan nan nan nan nan nan nan nan 50 nan 43 44 45 45 47 47 47 48 48 48 48 46 45 43 42 42 43 43 44 48 49 50 50 49 48 45 45 44 43 45 44 46 46 40 37 37 37 37 35 34 33 33 33 32 31 30 29 30 33 32 33 36 38 39 38 39 38 36 36 36 36 36 34 33
nan nan 89 88 nan nan nan 74 75 nan nan nan nan nan nan nan nan nan nan nan 53 50 49 47 47 47 48 47 48 50 50 50 50 49 49 48 46 45 44 42 42 43 47 50 52 53 51 52 52 51 49 48 49 49 46 44 43 40 39 39 38 35 34 33 34 35 34 32 32 32 32 35 36 36 38 42 42 40 41 40 41 39 39 39 38 38 39
nan nan nan nan nan nan nan 77 77 nan nan nan nan 71 71 73 71 66 62 59 54 50 51 49 50 50 48 47 49 52 53 52 51 50 50 50 49 47 45 43 41 42 45 49 53 56 57 57 57 56 54 52 53 49 48 47 45 43 41 39 37 35 35 36 36 36 36 35 34 34 34 35 36 37 38 40 41 42 42 44 44 42 42 44 43 41 44
nan nan 88 nan nan 79 77 76 76 75 nan nan nan 74 76 75 72 69 66 62 58 54 51 52 51 52 52 51 51 53 54 54 52 50 50 51 50 49 48 45 43 42 45 48 53 56 59 60 60 59 58 55 53 51 51 50 48 46 43 42 40 39 39 39 39 38 37 36 36 35 36 36 37 38 40 40 41 43 42 43 43 43 43 44 43 42 41
nan nan nan nan nan nan 81 nan 69 nan nan nan nan 77 78 74 71 69 68 67 66 59 54 53 52 54 56 56 nan nan nan 53 51 50 49 50 50 49 48 46 46 47 48 50 52 54 55 56 57 58 58 57 56 55 55 53 52 52 51 49 46 46 46 46 44 43 41 41 40 41 41 41 41 41 41 41 42 42 43 42 41 41 42 43 43 43 43
nan nan nan nan nan nan nan nan nan 65 nan nan nan nan 82 76 73 70 67 66 66 63 58 55 55 56 58 57 55 52 nan 51 51 50 50 49 50 50 50 50 49 49 49 50 51 53 53 52 52 54 56 57 57 58 58 58 56 56 56 57 56 56 54 51 50 49 47 47 45 43 43 43 42 41 41 40 40 39 39 43 44 45 46 45 46 44 45
nan nan nan 74 nan 74 78 nan 67 61 61 62 nan nan 82 73 nan 66 65 63 63 63 60 58 58 59 59 60 58 55 53 52 52 52 52 52 51 51 50 51 51 51 51 50 49 50 50 50 50 51 53 53 54 55 56 57 58 58 57 57 58 57 56 54 52 51 49 47 47 46 45 45 45 45 49 49 47 45 44 50 53 51 54 49 48 50 53
nan nan nan nan nan nan nan nan nan nan 61 60 63 nan nan nan nan 60 64 63 62 63 61 58 58 59 60 60 60 59 56 54 54 55 56 55 54 54 53 53 53 52 50 50 50 50 49 49 50 51 52 51 51 52 53 53 53 53 52 52 52 52 52 51 50 50 49 49 49 49 49 48 47 48 48 50 52 52 51 51 51 51 50 47 45 45 50
nan nan nan nan nan nan nan nan nan nan 62 60 67 nan nan nan nan nan 62 61 60 58 59 59 57 56 58 59 60 61 59 59 58 59 60 58 56 55 55 55 54 53 52 52 52 50 49 50 50 50 52 51 51 52 52 52 50 50 50 50 51 50 49 47 47 48 49 50 50 50 51 52 52 53 52 50 52 54 53 54 54 52 50 48 48 49 48
nan nan nan nan nan nan nan nan nan nan nan nan 62 nan nan nan nan nan nan nan 55 55 56 55 55 54 54 57 60 61 61 62 63 63 63 62 60 59 59 60 59 57 54 53 53 52 51 53 53 51 52 52 51 51 50 50 50 51 51 51 52 52 51 50 51 52 52 52 52 52 52 52 52 53 53 53 54 55 54 53 51 50 49 51 51 51 51
nan nan nan nan nan nan nan nan nan nan nan nan nan nan nan nan nan nan nan 55 52 nan nan nan nan nan 57 58 59 61 63 65 66 67 66 65 64 65 65 64 62 59 57 57 57 57 56 57 56 55 56 55 52 51 51 51 51 52 52 53 55 54 54 55 55 55 55 55 55 54 53 53 53 53 53 53 53 53 53 53 52 51 nan nan 50 52 54
nan nan nan nan nan nan nan nan nan nan nan nan nan nan nan nan nan nan nan nan nan nan nan nan nan nan nan nan 61 63 64 64 67 70 69 69 69 67 66 64 64 63 62 59 59 59 59 57 57 57 57 55 54 54 53 53 53 53 54 55 56 59 61 58 57 56 56 56 56 56 56 56 55 54 54 53 53 54 54 53 52 52 54 56 57 nan 55
nan nan nan nan nan nan nan nan nan nan nan nan nan nan nan nan nan nan nan nan nan nan nan nan nan nan nan nan nan 63 64 69 72 72 71 69 68 67 68 67 65 64 63 62 62 62 60 57 56 58 59 56 56 56 56 56 56 57 58 58 60 60 60 60 59 57 56 55 55 55 56 55 54 53 53 54 55 55 nan nan nan 53 55 56 55 nan nan
nan nan 40 37 nan 41 nan nan nan nan nan 50 nan nan nan nan nan nan nan nan nan nan nan nan nan nan nan nan nan nan nan nan nan nan nan 69 68 68 67 67 67 67 67 66 65 64 61 59 58 59 60 59 59 59 59 60 61 62 62 62 63 63 63 62 61 59 58 56 55 55 55 54 54 54 54 54 54 nan nan nan nan nan nan nan nan nan nan
23 32 38 40 38 36 31 nan nan nan nan 51 55 nan nan nan nan nan nan nan nan nan nan nan nan nan nan nan nan nan nan nan nan nan nan nan 68 67 68 67 68 71 70 69 67 64 62 61 61 62 61 60 61 62 63 63 63 64 65 65 65 64 64 62 60 58 56 55 54 54 55 54 54 53 52 52 nan nan nan nan nan nan nan nan nan nan nan
nan nan nan 26 30 33 nan nan nan nan nan nan 56 58 nan nan nan nan nan nan nan nan nan nan nan nan nan nan nan nan nan nan nan nan nan nan nan 64 nan nan nan 66 65 64 63 62 60 60 61 61 60 60 61 62 62 62 62 62 63 63 65 65 62 58 55 53 51 51 51 52 52 51 51 50 nan nan nan nan nan nan nan nan nan nan nan nan nan
nan nan 12 nan nan nan nan nan 28 nan nan nan nan 55 nan nan nan nan nan nan nan nan nan nan nan nan nan nan nan nan nan nan nan nan nan nan nan nan nan 53 54 55 54 53 55 56 56 57 58 57 57 58 59 61 62 62 62 63 62 62 61 59 56 51 50 48 48 49 49 49 49 49 49 48 50 nan nan nan nan nan nan nan nan nan nan nan nan
19 nan nan nan 24 nan nan nan nan nan nan nan nan nan nan nan nan nan nan nan nan nan nan nan nan nan nan nan nan nan nan nan nan nan nan nan nan nan nan nan nan nan nan 47 48 49 49 50 49 48 49 49 49 51 54 57 60 60 59 58 57 55 53 51 46 46 46 45 47 47 48 nan nan nan nan nan nan nan nan nan nan nan nan nan nan nan nan
16 16 nan nan nan 22 30 nan nan nan nan nan 62 61 59 54 nan nan nan nan nan nan nan nan nan nan nan nan nan nan nan nan nan nan nan nan nan nan nan nan nan nan nan nan 46 44 42 44 46 47 49 48 46 45 45 48 51 53 54 55 54 53 51 49 46 46 46 45 46 47 48 nan nan nan nan nan nan nan nan nan nan nan nan nan nan nan nan
14 14 13 15 nan 25 32 30 nan 10 21 42 57 63 61 57 nan nan nan nan nan nan nan nan nan nan nan nan nan nan nan nan nan nan nan nan nan nan nan nan nan nan nan nan 47 44 44 46 47 49 50 51 51 49 47 46 48 50 52 53 52 50 49 47 46 46 46 46 46 47 48 49 nan nan nan nan nan nan nan nan nan nan nan nan nan nan nan
15 14 16 18 20 24 27 25 19 12 11 20 37 53 60 61 58 51 41 31 24 22 24 nan nan nan nan nan nan nan nan nan nan nan nan nan nan nan nan nan nan nan nan nan nan nan 50 52 54 55 52 51 51 51 50 48 48 49 50 51 51 50 49 48 48 47 47 47 47 49 49 50 nan nan 48 nan nan nan nan nan nan nan nan nan nan nan nan
19 16 14 15 15 18 20 19 17 16 13 8 12 26 40 50 56 60 58 50 41 34 nan nan nan nan nan nan nan nan nan nan nan nan nan nan nan nan nan nan nan nan nan nan nan nan nan nan 57 nan nan nan 51 51 51 51 46 47 49 50 51 50 49 49 50 49 50 49 49 49 50 50 51 51 48 45 nan nan nan nan nan nan nan nan nan nan nan
nan 21 21 18 16 16 17 15 14 15 16 14 11 15 25 37 nan nan 58 nan 53 nan nan nan nan nan nan nan nan nan nan nan nan nan nan nan nan nan nan nan nan nan nan nan nan nan nan nan nan nan nan nan nan nan nan 52 nan nan 48 50 50 51 51 51 51 50 50 49 48 49 49 50 50 50 47 45 nan nan nan nan nan nan nan nan nan nan nan
nan 22 22 24 23 22 22 21 nan nan 18 nan 15 nan nan nan 31 35 41 45 nan nan nan nan nan nan nan nan nan nan nan nan nan nan nan nan nan nan nan nan nan nan nan nan nan nan nan nan nan nan nan nan nan nan nan nan nan nan nan nan nan nan nan nan nan nan 46 46 46 47 49 50 50 48 45 43 42 41 nan nan nan nan nan nan nan nan nan
nan nan nan 26 24 nan nan nan 23 21 20 19 17 17 nan nan 27 nan 34 nan nan nan nan nan nan nan nan nan nan nan nan nan nan nan nan nan nan nan nan nan nan nan nan nan nan nan nan nan nan nan nan nan nan nan nan nan nan nan nan nan nan nan nan nan nan nan nan nan 42 43 46 nan 47 45 44 41 nan nan nan nan nan nan nan nan nan nan nan
nan nan nan nan nan nan 27 27 27 28 nan 27 nan 26 27 30 nan nan nan nan nan nan nan nan nan nan nan nan nan nan nan nan nan nan nan nan nan nan nan nan nan nan nan nan nan nan nan nan nan nan nan nan nan nan nan nan nan nan nan nan nan nan nan nan nan nan nan nan nan nan nan nan nan nan 41 39 34 30 28 28 nan nan nan nan nan nan nan
nan nan nan nan nan nan nan nan nan nan nan nan nan nan nan nan nan nan nan nan nan nan nan nan nan nan nan nan nan nan nan nan nan nan nan nan nan nan nan nan nan nan nan nan nan nan nan nan nan nan nan nan nan nan nan nan nan nan nan nan nan nan nan nan nan nan nan nan nan nan nan nan nan nan nan nan nan 31 28 25 24 24 24 nan nan nan 29
nan nan nan nan nan nan nan nan nan nan nan nan nan nan nan nan nan nan nan nan nan nan nan nan nan nan nan nan nan nan nan nan nan nan nan nan nan nan nan nan nan nan nan nan nan nan nan nan nan nan nan nan nan nan nan nan nan nan nan nan nan nan nan nan nan nan nan nan nan nan nan nan nan nan nan nan nan nan nan nan nan nan 24 23 25 28 28
nan nan nan nan nan nan nan nan nan nan nan nan nan nan nan nan nan nan nan nan nan nan nan nan nan nan nan nan nan nan nan nan nan nan nan nan nan nan nan nan nan nan nan nan nan nan nan nan nan nan nan nan nan nan nan nan nan nan nan nan nan nan nan nan nan nan nan nan nan nan nan nan nan nan nan nan nan nan nan nan nan nan nan 31 31 31 nan
nan nan nan nan nan nan nan nan nan nan nan nan nan nan nan nan nan nan nan nan nan nan nan nan nan nan nan nan nan nan nan nan nan nan nan nan nan nan nan nan nan nan nan nan nan nan nan nan nan nan nan nan nan nan nan nan nan nan nan nan nan nan nan nan nan nan nan nan nan nan nan nan nan nan nan nan nan nan nan nan nan nan nan nan 35 34 33
nan nan nan nan nan nan nan nan nan nan nan nan nan nan nan nan nan nan nan nan nan nan nan nan nan nan nan nan nan nan nan nan nan nan nan nan nan nan nan nan nan nan nan nan nan nan nan nan nan nan nan nan nan nan nan nan nan nan nan nan nan nan nan nan nan nan nan nan nan nan nan nan nan nan nan nan nan nan nan nan nan nan nan nan nan nan nan
nan nan nan nan nan nan nan nan nan nan nan nan nan nan nan nan nan nan nan nan nan nan nan nan nan nan nan nan nan nan nan nan nan nan nan nan nan nan nan nan nan nan nan nan nan nan nan nan nan nan nan nan nan nan nan nan nan nan nan nan nan nan nan nan nan nan nan nan nan nan nan nan nan nan nan nan nan nan nan nan nan nan nan nan nan 32 nan
nan nan nan nan nan nan nan nan nan nan nan nan nan nan nan nan nan nan nan nan nan nan nan nan nan nan nan nan nan nan nan nan nan nan nan nan nan nan nan nan nan nan nan nan nan nan nan nan nan nan nan nan nan nan nan nan nan nan nan nan nan nan nan nan nan nan nan nan nan nan nan nan nan nan nan nan nan nan nan nan nan nan nan nan nan nan nan
nan nan nan nan nan nan nan nan nan nan nan nan nan nan nan nan nan nan nan nan nan nan nan nan nan nan nan nan nan nan nan nan nan nan nan nan nan nan nan nan nan nan nan nan nan nan nan nan nan nan nan nan nan nan nan nan nan nan nan nan nan nan nan nan nan nan nan nan nan nan nan nan nan nan nan nan nan nan nan nan nan nan nan nan 31 nan nan
nan nan nan nan nan nan nan nan nan nan nan nan nan nan nan nan nan nan nan nan nan nan nan nan nan nan nan nan nan nan nan nan nan nan nan nan nan nan nan nan nan nan nan nan nan nan nan nan nan nan nan nan nan nan nan nan nan nan nan nan nan nan nan nan nan nan nan nan nan nan nan nan nan nan nan nan nan nan nan nan nan nan nan nan nan nan 32
nan nan nan nan nan nan nan nan nan nan nan nan nan nan nan nan nan nan nan nan nan nan nan nan nan nan nan nan nan nan nan nan nan nan nan nan nan nan nan nan nan nan nan nan nan nan nan nan nan nan nan nan nan nan nan nan nan nan nan nan nan nan nan nan nan nan nan nan nan nan nan nan nan nan nan nan nan nan nan nan nan nan nan nan nan nan nan
nan nan nan nan nan nan nan nan nan nan nan nan nan nan nan nan nan nan nan nan nan nan nan nan nan nan nan nan nan nan nan nan nan nan nan nan nan nan nan nan nan nan nan nan nan nan nan nan nan nan nan nan nan nan nan nan nan nan nan nan nan nan nan nan nan nan nan nan nan nan nan nan nan nan nan nan nan nan nan nan nan nan nan nan nan nan nan
Wind_Direction
nan nan nan nan nan nan nan nan nan nan nan nan nan nan nan nan nan nan nan nan nan nan nan nan nan 206 211 nan nan nan nan nan nan nan nan nan nan 214 210 203 206 211 215 222 231 242 258 271 275 279 272 273 262 256 262 266 278 289 281 281 281 283 284 301 313 315 311 317 325 331 334 340 348 351 351 352 352 352 351 355 357 357 345 326 306 293 283
nan nan nan nan nan nan nan nan nan nan nan nan nan nan nan nan nan nan nan nan nan nan nan nan nan nan nan nan nan nan nan nan nan nan 223 nan nan nan 217 209 207 214 218 223 232 244 259 273 277 278 265 265 270 277 281 281 285 292 276 280 285 294 306 318 305 295 292 297 314 320 324 335 338 339 344 351 357 358 355 355 356 355 356 353 345 324 303
nan nan nan nan nan nan nan nan nan nan nan nan nan nan nan nan nan nan nan nan nan nan nan nan nan nan nan nan nan nan nan nan nan nan nan 222 221 nan 220 215 210 213 219 220 229 240 253 270 283 287 278 270 269 295 292 300 299 293 290 282 293 305 328 322 290 284 286 302 304 318 325 327 331 333 338 343 353 359 359 358 358 351 350 354 350 337 325
nan nan nan nan nan nan nan nan nan nan nan nan nan nan nan nan nan nan nan nan nan nan nan nan nan nan nan nan nan nan nan nan nan nan nan 213 213 214 214 215 217 216 219 222 228 243 261 271 279 286 286 271 272 287 298 312 313 300 296 296 303 302 307 275 274 285 300 305 312 320 319 323 325 326 325 334 347 355 354 353 352 354 356 349 340 336 325
nan nan nan nan nan nan nan nan nan nan nan nan nan nan nan nan nan nan nan nan nan nan nan nan nan nan nan nan nan nan nan nan nan nan nan 217 219 221 225 219 217 nan nan 216 222 235 253 264 277 303 298 283 284 300 303 306 292 295 302 303 294 293 280 283 290 293 296 304 313 311 315 314 313 315 320 327 336 341 346 342 340 352 359 350 343 336 331
nan nan nan nan nan nan nan nan nan nan nan nan nan nan nan nan nan nan nan nan nan nan nan nan nan nan nan nan nan nan nan nan 233 nan nan nan 220 222 226 nan nan nan 215 210 210 224 240 253 275 287 290 297 288 287 274 264 275 280 282 283 281 284 277 279 284 288 293 303 311 307 299 302 305 312 318 326 327 327 327 328 333 344 353 354 346 343 343
nan nan nan nan nan nan nan nan nan nan nan nan nan nan nan nan nan nan nan nan nan nan nan nan nan nan nan 215 219 nan 223 228 nan 233 234 232 227 223 227 228 225 222 216 211 207 213 222 228 228 243 268 283 269 266 266 274 278 274 273 275 269 270 271 273 271 275 286 295 297 291 291 295 298 305 311 313 316 313 314 319 328 341 340 344 351 355 356
nan nan nan nan nan nan nan nan nan nan nan nan nan nan nan nan nan nan nan nan nan nan nan nan nan nan 224 226 227 224 222 225 226 232 235 236 235 230 230 229 227 224 219 217 211 211 221 231 234 243 259 266 265 271 273 272 270 270 267 269 270 267 270 273 275 273 275 277 280 281 284 288 294 301 303 305 304 298 298 304 312 319 315 326 341 348 349
nan nan nan nan nan nan nan nan nan nan nan nan nan nan nan nan nan nan nan nan nan nan nan nan nan nan nan 228 232 239 232 230 227 228 229 233 235 233 230 230 228 226 220 218 215 214 218 227 236 243 244 249 252 258 266 271 273 275 273 272 274 273 274 275 271 264 261 264 269 275 282 287 295 300 299 299 293 285 292 296 298 304 315 320 321 322 333
nan nan nan nan nan nan nan nan nan nan nan nan nan nan nan nan nan nan nan nan 231 229 228 nan nan nan nan nan nan 247 247 241 235 233 231 232 236 236 234 231 228 227 225 223 225 225 222 227 231 240 248 249 249 251 257 264 272 277 276 279 279 275 271 269 264 257 256 260 264 275 282 288 293 293 290 287 292 291 295 293 292 298 292 294 306 312 324
nan nan nan nan nan nan nan nan nan nan nan nan nan nan nan nan nan nan nan nan nan 230 230 230 nan nan nan nan nan 246 250 247 240 237 235 233 234 235 237 234 227 224 223 222 222 229 227 229 236 244 249 256 257 255 256 264 269 272 275 276 279 281 275 270 268 268 266 264 260 261 269 274 276 280 281 282 281 280 286 288 290 285 284 284 285 292 299
nan nan nan nan nan nan nan nan nan nan nan nan nan nan nan nan nan nan nan nan nan 228 229 231 237 nan nan nan nan 244 249 248 243 238 233 232 231 233 236 238 235 230 228 232 234 231 229 226 236 247 251 255 261 260 262 265 270 273 278 283 275 276 277 275 272 270 271 271 260 257 266 270 272 274 273 276 281 284 288 291 296 300 299 299 289 275 281
nan nan nan nan nan nan nan nan nan nan nan nan nan nan nan nan nan nan nan nan nan 230 231 236 nan nan 240 239 237 239 242 247 246 242 238 234 231 230 234 238 235 238 238 237 235 231 225 220 227 242 250 256 261 264 264 268 277 279 264 258 261 266 267 270 273 277 278 279 277 267 266 274 277 275 277 284 289 292 298 298 301 309 316 317 306 285 274
nan nan nan nan nan nan nan nan nan nan nan nan nan nan nan nan nan nan nan nan nan nan 232 236 239 240 242 243 244 243 242 241 242 241 239 238 237 236 236 237 239 240 241 239 237 234 230 226 228 236 246 253 258 261 266 270 266 257 255 259 261 265 268 272 277 282 284 283 278 268 268 273 278 281 285 291 294 298 296 300 311 315 318 319 313 303 277
nan nan nan nan nan nan nan nan nan nan nan nan nan nan nan nan nan nan nan nan nan nan nan 236 242 247 248 247 245 243 242 241 238 238 238 238 236 233 232 237 240 242 243 241 239 237 235 232 229 231 241 249 251 254 258 256 258 259 261 265 268 270 273 278 284 289 290 291 286 282 282 284 286 289 291 296 299 300 301 301 307 314 312 309 311 305 294
nan nan nan nan nan 226 229 nan nan nan nan nan nan nan nan nan nan nan nan nan nan 231 nan 234 246 247 249 248 247 245 243 241 239 238 237 237 237 237 235 234 238 243 246 245 242 240 240 238 235 232 237 244 245 249 249 244 248 255 259 262 267 270 271 276 281 284 285 290 290 290 292 290 291 293 297 299 300 302 303 304 306 306 306 305 303 305 305
nan nan 226 225 nan nan nan 223 227 nan nan nan nan nan nan nan nan nan nan nan 227 231 231 232 242 244 242 244 245 246 244 242 241 240 239 238 238 239 239 237 236 239 245 247 245 242 241 241 241 240 237 241 246 245 243 244 248 255 260 264 270 273 275 277 281 282 284 287 290 291 291 292 293 294 297 297 298 301 301 303 301 301 304 306 307 303 300
nan nan nan nan nan nan nan 225 227 nan nan nan nan 242 243 242 241 238 236 232 228 228 235 235 238 239 240 242 245 247 247 245 244 244 243 242 241 242 244 244 241 240 242 246 247 244 241 241 243 243 243 242 243 242 243 245 247 251 259 264 267 269 271 274 277 281 284 286 287 288 286 285 287 288 291 291 292 292 294 293 297 304 301 299 302 303 296
nan nan 228 nan nan 224 227 228 229 229 nan nan nan 242 243 242 242 241 240 237 233 227 230 235 237 239 239 240 241 245 248 247 246 246 247 246 244 244 244 245 246 244 242 243 244 244 242 241 242 244 246 246 246 246 246 247 249 251 256 261 264 267 269 270 272 275 279 278 278 279 281 280 280 281 282 282 283 283 288 290 296 298 299 298 298 298 301
nan nan nan nan nan nan 223 nan 230 nan nan nan nan 242 243 243 244 244 243 241 239 232 228 227 232 238 240 240 nan nan nan 248 249 248 248 249 248 248 247 247 247 247 245 243 243 244 245 245 245 244 245 246 246 247 247 247 249 253 256 258 262 264 266 265 266 269 271 272 274 274 275 277 278 278 279 280 280 281 283 287 290 293 293 293 296 298 298
nan nan nan nan nan nan nan nan nan 229 nan nan nan nan 243 242 243 244 246 246 245 241 231 226 229 235 239 239 238 239 nan 244 248 249 250 251 251 250 251 249 248 248 247 245 244 244 246 248 248 249 249 249 248 247 248 249 250 253 255 258 260 261 262 264 264 264 265 266 268 269 268 270 272 272 275 277 279 278 281 280 283 286 287 288 289 292 292
nan nan nan 225 nan 226 227 nan 227 230 232 232 nan nan 244 241 nan 246 247 247 247 246 241 233 228 230 235 238 238 239 239 239 244 247 248 249 250 250 251 251 249 248 247 246 246 246 247 248 248 248 249 249 249 248 248 249 251 253 255 256 257 258 259 260 260 261 262 264 264 267 269 271 271 271 269 268 270 269 270 262 255 254 257 269 272 278 280
nan nan nan nan nan nan nan nan nan nan 226 228 235 nan nan nan nan 245 248 246 245 245 246 243 237 232 232 234 237 240 240 239 242 245 247 247 248 249 249 250 250 248 245 245 248 249 249 249 247 246 247 248 249 250 251 251 252 252 254 256 257 259 259 260 261 262 263 264 266 268 270 271 273 272 271 271 268 268 270 268 266 261 262 265 265 264 273
nan nan nan nan nan nan nan nan nan nan 222 224 231 nan nan nan nan nan 251 250 250 249 247 245 244 240 237 235 237 239 240 240 241 243 245 246 246 247 248 248 248 246 242 242 244 246 247 247 247 246 248 250 253 254 254 254 255 256 257 258 258 259 261 263 265 266 268 269 269 269 270 271 272 271 269 268 267 269 271 272 272 274 274 272 272 276 278
nan nan nan nan nan nan nan nan nan nan nan nan 231 nan nan nan nan nan nan nan 247 247 243 239 238 237 237 237 238 238 239 239 239 240 243 243 244 245 245 245 243 241 238 238 241 244 245 244 245 245 247 250 253 255 256 256 257 257 256 258 259 260 261 262 262 262 262 263 264 265 266 268 269 268 267 267 265 263 264 269 275 277 278 280 282 279 280
nan nan nan nan nan nan nan nan nan nan nan nan nan nan nan nan nan nan nan 241 240 nan nan nan nan nan 232 235 236 235 236 236 236 237 239 239 241 242 242 242 241 239 236 236 238 241 243 242 243 244 247 250 253 254 256 257 258 258 257 257 258 260 263 265 266 268 268 268 268 267 267 267 267 267 267 266 266 266 266 268 270 274 nan nan 280 283 288
nan nan nan nan nan nan nan nan nan nan nan nan nan nan nan nan nan nan nan nan nan nan nan nan nan nan nan nan 232 233 233 233 235 236 237 237 239 241 242 242 239 236 234 234 236 238 241 243 244 246 249 252 255 257 259 260 260 260 259 258 260 261 263 266 268 270 271 271 270 270 271 272 271 270 269 268 269 269 270 270 269 269 269 276 284 nan 289
nan nan nan nan nan nan nan nan nan nan nan nan nan nan nan nan nan nan nan nan nan nan nan nan nan nan nan nan nan 231 231 232 234 234 234 235 239 242 244 243 240 236 235 235 236 239 242 244 246 248 251 254 257 259 261 262 263 263 263 263 264 266 267 268 269 270 272 271 269 269 271 271 269 269 268 268 268 270 nan nan nan 273 274 278 280 nan nan
nan nan 181 179 nan 177 nan nan nan nan nan 220 nan nan nan nan nan nan nan nan nan nan nan nan nan nan nan nan nan nan nan nan nan nan nan 234 237 242 245 243 239 235 235 236 237 239 243 245 246 248 250 253 257 258 260 261 263 265 266 266 267 268 269 269 270 271 272 271 270 270 270 270 269 266 265 266 269 nan nan nan nan nan nan nan nan nan nan
170 182 185 187 184 184 190 nan nan nan nan 213 215 nan nan nan nan nan nan nan nan nan nan nan nan nan nan nan nan nan nan nan nan nan nan nan 237 240 242 242 240 237 237 238 239 241 244 245 246 248 250 252 255 258 259 260 262 263 264 266 267 268 270 271 271 271 271 270 269 269 268 267 266 265 265 266 nan nan nan nan nan nan nan nan nan nan nan
nan nan nan 186 200 197 nan nan nan nan nan nan 207 211 nan nan nan nan nan nan nan nan nan nan nan nan nan nan nan nan nan nan nan nan nan nan nan 240 nan nan nan 239 239 240 241 243 246 248 250 252 254 255 256 256 258 259 260 261 263 265 267 268 267 266 267 267 268 267 267 266 266 265 264 264 nan nan nan nan nan nan nan nan nan nan nan nan nan
nan nan 186 nan nan nan nan nan 219 nan nan nan nan 208 nan nan nan nan nan nan nan nan nan nan nan nan nan nan nan nan nan nan nan nan nan nan nan nan nan 238 239 240 240 241 243 246 250 253 254 255 257 257 258 258 258 259 260 262 264 265 264 264 263 261 263 261 261 262 263 262 261 262 264 265 266 nan nan nan nan nan nan nan nan nan nan nan nan
184 nan nan nan 206 nan nan nan nan nan nan nan nan nan nan nan nan nan nan nan nan nan nan nan nan nan nan nan nan nan nan nan nan nan nan nan nan nan nan nan nan nan nan 243 245 247 249 251 254 256 257 258 259 259 259 259 260 261 262 263 262 262 261 259 259 261 261 261 261 261 262 nan nan nan nan nan nan nan nan nan nan nan nan nan nan nan nan
171 181 nan nan nan 207 214 nan nan nan nan nan 202 204 206 206 nan nan nan nan nan nan nan nan nan nan nan nan nan nan nan nan nan nan nan nan nan nan nan nan nan nan nan nan 243 244 248 252 256 258 259 259 260 260 259 258 258 259 259 260 261 261 260 259 260 259 260 260 261 262 264 nan nan nan nan nan nan nan nan nan nan nan nan nan nan nan nan
184 191 196 194 nan 200 212 224 nan 233 212 207 206 208 211 211 nan nan nan nan nan nan nan nan nan nan nan nan nan nan nan nan nan nan nan nan nan nan nan nan nan nan nan nan 240 244 252 257 259 262 262 261 260 259 258 256 255 256 256 257 258 259 257 257 257 259 259 260 261 262 264 267 nan nan nan nan nan nan nan nan nan nan nan nan nan nan nan
205 204 198 198 198 203 213 225 242 252 232 211 209 214 217 219 222 222 222 225 230 231 227 nan nan nan nan nan nan nan nan nan nan nan nan nan nan nan nan nan nan nan nan nan nan nan 256 260 258 259 264 262 261 258 254 253 254 253 254 254 255 255 255 254 255 256 257 258 260 261 263 265 nan nan 268 nan nan nan nan nan nan nan nan nan nan nan nan
197 194 193 191 191 199 206 212 229 242 248 258 235 226 227 228 231 231 231 234 238 240 nan nan nan nan nan nan nan nan nan nan nan nan nan nan nan nan nan nan nan nan nan nan nan nan nan nan 258 nan nan nan 260 257 251 246 252 251 251 252 252 253 252 252 253 255 257 258 258 260 261 263 263 264 264 265 nan nan nan nan nan nan nan nan nan nan nan
nan 184 185 183 179 185 193 201 212 231 247 263 260 236 228 230 nan nan 234 nan 241 nan nan nan nan nan nan nan nan nan nan nan nan nan nan nan nan nan nan nan nan nan nan nan nan nan nan nan nan nan nan nan nan nan nan 242 nan nan 250 250 250 251 251 252 253 255 255 257 258 258 258 258 259 261 263 263 nan nan nan nan nan nan nan nan nan nan nan
nan 178 184 184 178 178 184 184 nan nan 220 nan 244 nan nan nan 233 239 240 240 nan nan nan nan nan nan nan nan nan nan nan nan nan nan nan nan nan nan nan nan nan nan nan nan nan nan nan nan nan nan nan nan nan nan nan nan nan nan nan nan nan nan nan nan nan nan 257 257 258 258 259 259 259 258 260 259 260 262 nan nan nan nan nan nan nan nan nan
nan nan nan 181 184 nan nan nan 184 188 183 188 204 213 nan nan 217 nan 236 nan nan nan nan nan nan nan nan nan nan nan nan nan nan nan nan nan nan nan nan nan nan nan nan nan nan nan nan nan nan nan nan nan nan nan nan nan nan nan nan nan nan nan nan nan nan nan nan nan 256 256 257 nan 258 257 255 253 nan nan nan nan nan nan nan nan nan nan nan
nan nan nan nan nan nan 189 196 195 190 nan 185 nan 203 208 206 nan nan nan nan nan nan nan nan nan nan nan nan nan nan nan nan nan nan nan nan nan nan nan nan nan nan nan nan nan nan nan nan nan nan nan nan nan nan nan nan nan nan nan nan nan nan nan nan nan nan nan nan nan nan nan nan nan nan 252 252 255 261 265 263 nan nan nan nan nan nan nan
nan nan nan nan nan nan nan nan nan nan nan nan nan nan nan nan nan nan nan nan nan nan nan nan nan nan nan nan nan nan nan nan nan nan nan nan nan nan nan nan nan nan nan nan nan nan nan nan nan nan nan nan nan nan nan nan nan nan nan nan nan nan nan nan nan nan nan nan nan nan nan nan nan nan nan nan nan 253 253 253 254 258 263 nan nan nan 269
nan nan nan nan nan nan nan nan nan nan nan nan nan nan nan nan nan nan nan nan nan nan nan nan nan nan nan nan nan nan nan nan nan nan nan nan nan nan nan nan nan nan nan nan nan nan nan nan nan nan nan nan nan nan nan nan nan nan nan nan nan nan nan nan nan nan nan nan nan nan nan nan nan nan nan nan nan nan nan nan nan nan 255 265 274 273 265
nan nan nan nan nan nan nan nan nan nan nan nan nan nan nan nan nan nan nan nan nan nan nan nan nan nan nan nan nan nan nan nan nan nan nan nan nan nan nan nan nan nan nan nan nan nan nan nan nan nan nan nan nan nan nan nan nan nan nan nan nan nan nan nan nan nan nan nan nan nan nan nan nan nan nan nan nan nan nan nan nan nan nan 259 265 271 nan
nan nan nan nan nan nan nan nan nan nan nan nan nan nan nan nan nan nan nan nan nan nan nan nan nan nan nan nan nan nan nan nan nan nan nan nan nan nan nan nan nan nan nan nan nan nan nan nan nan nan nan nan nan nan nan nan nan nan nan nan nan nan nan nan nan nan nan nan nan nan nan nan nan nan nan nan nan nan nan nan nan nan nan nan 258 261 262
nan nan nan nan nan nan nan nan nan nan nan nan nan nan nan nan nan nan nan nan nan nan nan nan nan nan nan nan nan nan nan nan nan nan nan nan nan nan nan nan nan nan nan nan nan nan nan nan nan nan nan nan nan nan nan nan nan nan nan nan nan nan nan nan nan nan nan nan nan nan nan nan nan nan nan nan nan nan nan nan nan nan nan nan nan nan nan
nan nan nan nan nan nan nan nan nan nan nan nan nan nan nan nan nan nan nan nan nan nan nan nan nan nan nan nan nan nan nan nan nan nan nan nan nan nan nan nan nan nan nan nan nan nan nan nan nan nan nan nan nan nan nan nan nan nan nan nan nan nan nan nan nan nan nan nan nan nan nan nan nan nan nan nan nan nan nan nan nan nan nan nan nan 228 nan
nan nan nan nan nan nan nan nan nan nan nan nan nan nan nan nan nan nan nan nan nan nan nan nan nan nan nan nan nan nan nan nan nan nan nan nan nan nan nan nan nan nan nan nan nan nan nan nan nan nan nan nan nan nan nan nan nan nan nan nan nan nan nan nan nan nan nan nan nan nan nan nan nan nan nan nan nan nan nan nan nan nan nan nan nan nan nan
nan nan nan nan nan nan nan nan nan nan nan nan nan nan nan nan nan nan nan nan nan nan nan nan nan nan nan nan nan nan nan nan nan nan nan nan nan nan nan nan nan nan nan nan nan nan nan nan nan nan nan nan nan nan nan nan nan nan nan nan nan nan nan nan nan nan nan nan nan nan nan nan nan nan nan nan nan nan nan nan nan nan nan nan 242 nan nan
nan nan nan nan nan nan nan nan nan nan nan nan nan nan nan nan nan nan nan nan nan nan nan nan nan nan nan nan nan nan nan nan nan nan nan nan nan nan nan nan nan nan nan nan nan nan nan nan nan nan nan nan nan nan nan nan nan nan nan nan nan nan nan nan nan nan nan nan nan nan nan nan nan nan nan nan nan nan nan nan nan nan nan nan nan nan 230
nan nan nan nan nan nan nan nan nan nan nan nan nan nan nan nan nan nan nan nan nan nan nan nan nan nan nan nan nan nan nan nan nan nan nan nan nan nan nan nan nan nan nan nan nan nan nan nan nan nan nan nan nan nan nan nan nan nan nan nan nan nan nan nan nan nan nan nan nan nan nan nan nan nan nan nan nan nan nan nan nan nan nan nan nan nan nan
nan nan nan nan nan nan nan nan nan nan nan nan nan nan nan nan nan nan nan nan nan nan nan nan nan nan nan nan nan nan nan nan nan nan nan nan nan nan nan nan nan nan nan nan nan nan nan nan nan nan nan nan nan nan nan nan nan nan nan nan nan nan nan nan nan nan nan nan nan nan nan nan nan nan nan nan nan nan nan nan nan nan nan nan nan nan nan